Weather History for Albuquerque, NM

Change the Weather History Date:

Wednesday, October 5, 2011

  Actual Average Record
Temperature  
Mean Temperature 59 °F 62 °F  
Max Temperature 67 °F 73 °F 91 °F (1979)
Min Temperature 51 °F 50 °F 34 °F (1932)
Degree Days  
Heating Degree Days 6 4  
Month to date heating degree days 12 17  
Since 1 July heating degree days 12 43  
Cooling Degree Days 0 1  
Month to date cooling degree days 8 5  
Year to date cooling degree days 1714 1317  
Growing Degree Days 8 (Base 50)    
Moisture  
Dew Point 48 °F    
Average Humidity 60    
Maximum Humidity 77    
Minimum Humidity 42    
Precipitation  
Precipitation 0.57 in 0.04 in 0.80 in (1901)
Month to date precipitation 1.02 0.21  
Year to date precipitation 2.93 7.57  
Snow  
Snow 0.00 in - - ()
Month to date snowfall 0.0  
Since 1 July snowfall 0.0  
Since 1 September snowfall 0.0  
Snow Depth 0.00 in    
Sea Level Pressure  
Sea Level Pressure 29.92 in    
Wind  
Wind Speed 7 mph (South)    
Max Wind Speed 17 mph    
Max Gust Speed 23 mph    
Visibility 8 miles    
Events Fog , Rain , Thunderstorm    
T = Trace of Precipitation, MM = Missing Value Source: NWS Daily Summary

Daily Weather History Graph

Daily Weather History Graph

Search for Another Location

Airport:

Trip Planner

Search our weather history database for the weather conditions in past years. The results will help you decide how hot, cold, wet, or windy it might be!

Date:

Astronomy

Oct. 05, 2011 Rise Set
Actual Time 7:04 AM MDT 6:45 PM MDT
Civil Twilight 6:38 AM MDT 7:10 PM MDT
Nautical Twilight 6:09 AM MDT 7:39 PM MDT
Astronomical Twilight 5:40 AM MDT 8:09 PM MDT
Moon 3:15 PM MDT (10/5) 1:07 AM MDT (10/5)
Length of Visible Light 12h 31m
Length of Day
11h 40m
Waxing Gibbous, 67% of the Moon is Illuminated
Oct 5
Waxing Gibbous
Oct 11
Full
Oct 19
Last Quarter
Oct 26
New
Nov 2
First Quarter

Hourly Weather History & Observations

Time (MDT) Temp. Dew Point Humidity Pressure Visibility Wind Dir Wind Speed Gust Speed Precip Events Conditions
12:56 AM 52.0 °F 51.1 °F 97% 30.01 in 4.0 mi West 6.9 mph - 0.02 in Rain Light Rain
1:56 AM 54.0 °F 51.1 °F 90% 29.97 in 10.0 mi ENE 5.8 mph - 0.04 in   Overcast
2:56 AM 53.1 °F 50.0 °F 89% 29.94 in 10.0 mi NW 6.9 mph - 0.04 in Rain Light Rain
3:56 AM 53.1 °F 51.1 °F 93% 29.94 in 10.0 mi NW 4.6 mph - 0.00 in Fog Overcast
4:12 AM 51.8 °F 51.8 °F 100% 30.10 in 6.0 mi West 8.1 mph - 0.00 in Rain Light Rain
4:30 AM 53.6 °F 51.8 °F 94% 30.10 in 7.0 mi Variable 6.9 mph - 0.01 in Rain , Thunderstorm Light Thunderstorms and Rain
4:41 AM 51.8 °F 51.8 °F 100% 30.11 in 1.8 mi South 6.9 mph - 0.02 in Rain , Thunderstorm Heavy Thunderstorms and Rain
4:49 AM 51.8 °F 50.0 °F 94% 30.11 in 1.0 mi NNE 5.8 mph - 0.20 in Rain , Thunderstorm Heavy Thunderstorms and Rain
4:56 AM 52.0 °F 50.0 °F 93% 30.00 in 1.2 mi North 4.6 mph - 0.29 in Rain , Thunderstorm Heavy Thunderstorms and Rain
5:09 AM 51.8 °F 50.0 °F 94% 30.10 in 2.0 mi North 6.9 mph - 0.06 in Rain , Thunderstorm Thunderstorms and Rain
5:25 AM 51.8 °F 50.0 °F 94% 30.09 in 3.0 mi North 5.8 mph - 0.12 in Rain Rain
5:56 AM 52.0 °F 50.0 °F 93% 29.96 in 10.0 mi NNE 6.9 mph - 0.14 in   Mostly Cloudy
6:33 AM 51.8 °F 48.2 °F 88% 30.10 in 10.0 mi South 4.6 mph - N/A   Mostly Cloudy
6:56 AM 52.0 °F 50.0 °F 93% 29.96 in 3.0 mi East 3.5 mph - 0.04 in Rain Rain
7:56 AM 52.0 °F 48.9 °F 89% 29.93 in 10.0 mi East 13.8 mph - 0.02 in   Mostly Cloudy
8:56 AM 55.0 °F 45.0 °F 69% 29.93 in 10.0 mi Calm Calm - N/A   Scattered Clouds
9:56 AM 55.9 °F 48.0 °F 75% 29.93 in 10.0 mi SW 8.1 mph - N/A   Scattered Clouds
10:56 AM 57.9 °F 46.0 °F 65% 29.92 in 10.0 mi Calm Calm - N/A   Partly Cloudy
11:56 AM 61.0 °F 46.9 °F 60% 29.89 in 10.0 mi South 3.5 mph - N/A   Scattered Clouds
12:56 PM 62.1 °F 46.0 °F 56% 29.86 in 10.0 mi South 5.8 mph - N/A   Scattered Clouds
1:56 PM 64.0 °F 45.0 °F 50% 29.83 in 10.0 mi South 11.5 mph - N/A   Mostly Cloudy
2:56 PM 66.0 °F 43.0 °F 43% 29.80 in 10.0 mi SSW 10.4 mph 18.4 mph N/A   Mostly Cloudy
3:56 PM 66.9 °F 43.0 °F 42% 29.79 in 10.0 mi South 12.7 mph 17.3 mph N/A   Mostly Cloudy
4:56 PM 66.9 °F 43.0 °F 42% 29.78 in 10.0 mi South 9.2 mph - N/A   Mostly Cloudy
5:56 PM 66.0 °F 43.0 °F 43% 29.79 in 10.0 mi South 6.9 mph - N/A   Mostly Cloudy
6:56 PM 64.9 °F 46.0 °F 50% 29.77 in 10.0 mi SSE 5.8 mph - N/A   Mostly Cloudy
7:56 PM 62.1 °F 48.0 °F 60% 29.79 in 10.0 mi East 5.8 mph - N/A   Mostly Cloudy
8:56 PM 59.0 °F 46.9 °F 64% 29.79 in 10.0 mi ESE 6.9 mph - N/A   Mostly Cloudy
9:56 PM 61.0 °F 43.0 °F 52% 29.78 in 10.0 mi South 13.8 mph - N/A   Scattered Clouds
10:56 PM 60.1 °F 42.1 °F 51% 29.78 in 10.0 mi South 11.5 mph - N/A   Scattered Clouds
11:56 PM 57.9 °F 43.0 °F 58% 29.77 in 10.0 mi South 8.1 mph - N/A   Partly Cloudy